Portada
METAR-TAF:

METAR-TAF

Aeroports :

Pekanbaru, Indonèsia

latitud: 00-28N, longitud: 101-27E, altitud: 31 m

Observació

L'informe es va fer fa 51 minuts, a les 08:00 UTC
Vent 9 kt del Sud/Sud-Est
Temperatura 32°C
Humitat 56%
Pressió 1005 hPa
Visibilitat: 8000 m
Núvols disperses a una alçada de 1500 ft

METAR: WIBB 020800Z 15009KT 8000 SCT015 32/22 Q1005

Hora: 15:51 (08:51 UTC)


TAF: manca

Observacions i pronòstics meteorològics de més de 4000 aeroports (METAR i TAF).

Les estacions disponibles són els punts grocs i vermells al mapa.

Posi el ratolí al punt desitjat per veure el nom de l'estació.

Feu clic per veure les observacions i els pronòstics meteorològics.

Per canviar el mapa: feu clic els botons verds amb una creu de color negre per apropar; al botó verd amb un guió per allunyar la imatge; o en les fletxes verdes per a mapes adjacents.


METAR-TAF: